User: anonymous   Login
Location: Unspecified
(0.0000°N, 0.0000°E)
Time: 00:51:12
(UTC+00:00)
Language:

STARLINK-32709 - Orbit

View from above orbital plane
View from above orbital plane
View from above satellite
View from above satellite

Ground track
Ground track

The orbit is defined by the following mean orbital elements,

1 62439U          26145.56233179 +.00000000 +00000-0 +40509-3 0 00002
2 62439  53.1607 338.5418 0001189 102.0856 258.0278 15.30206923    04
Epoch (UTC): 25 May 2026 13:29:45
Eccentricity: 0.0001189
inclination: 53.1607°
perigee height: 474 km
apogee height: 476 km
right ascension of ascending node: 338.5418°
argument of perigee: 102.0856°
revolutions per day: 15.30206923
mean anomaly at epoch: 258.0278°

The dashed part of the orbit path shows where the satellite is in the earth's shadow,  

DLR